Location: São Paulo
(23.5507°S, 46.6334°W)
Time: 08:18:09
(UTC-03:00)

Vanguard 3 - Pass Details

Date: 24 February 2026
Orbit: 507 x 3205 km, 33.4° (Epoch: 7 March)

Event Time Altitude Azimuth Distance (km) Brightness Sun altitude
Exits shadow 03:54:10 31° 237° (WSW) 2,250 9.1 -28.1°
Maximum altitude 03:58:19 50° 181° (S) 2,057 9.2 -27.3°
Drops below altitude 10° 04:11:50 10° 108° (ESE) 5,235 12.3 -24.4°
Sets 04:17:03 0° 103° (ESE) 6,610 13.2 -23.3°
